[[{"header":{"parameterUnit":"m.s-1","parameterCategory":1,"la1":30.2992,"la2":30.254,"lo1":-89.0895,"lo2":-89.0443,"dy":0.0025,"dx":0.0025,"nx":19,"ny":19,"refTime":"2026-04-15T03:00:00:Z","depth":0,"parameterNumber":2,"parameterNumberName":"U-component_of_WINDS"},"data":[0,0,0,-3.0929,-3.093,-3.0936,-3.0936,-3.0958,-3.0959,0,0,0,0,0,0,0,0,0,0,0,-3.0935,-3.0935,-3.0929,-3.093,-3.0936,-3.0936,-3.0958,-3.0959,0,0,0,0,0,0,0,0,0,0,0,-3.0935,-3.0935,-3.0936,-3.093,-3.0936,-3.0936,-3.0958,-3.0948,0,0,0,0,0,0,0,0,0,0,-3.094,-3.0952,-3.0935,-3.0936,-3.093,-3.0936,-3.0936,-3.0948,-3.0949,-3.0961,0,-3.0973,0,-3.0966,-3.0961,-3.0961,0,0,0,-3.0924,-3.0951,-3.0946,-3.0936,-3.093,-3.0936,-3.0932,-3.0948,-3.095,-3.0963,-3.0973,-3.0974,-3.0967,-3.0961,-3.0961,-3.1048,-3.1049,0,0,-3.0924,-3.094,-3.0945,-3.0947,-3.0946,-3.0931,-3.0932,-3.0949,-3.0961,-3.0973,-3.0974,-3.0967,-3.0961,-3.0962,-3.1048,-3.1049,0,0,0,-3.0927,-3.094,-3.0934,-3.0947,-3.0947,-3.0932,-3.0932,-3.0961,-3.0957,-3.0974,-3.0967,-3.0962,-3.0962,-3.1047,-3.1048,-3.1096,0,0,0,-3.0926,-3.0941,-3.0934,-3.0944,-3.0947,-3.0954,-3.0944,-3.0956,-3.0958,-3.0967,-3.0962,-3.0962,-3.1046,-3.1048,-3.1093,-3.1115,0,0,0,-3.0932,-3.0942,-3.0946,-3.0945,-3.0949,-3.0953,-3.0951,-3.0956,-3.0954,-3.0961,-3.0962,-3.1046,-3.1047,-3.109,-3.111,-3.1142,0,0,0,-3.0943,-3.0987,-3.0947,-3.0994,-3.0949,-3.0983,-3.095,-3.0975,-3.0987,-3.0962,-3.1046,-3.1048,-3.1089,-3.1108,-3.1139,-3.117,-3.1185,0,0,-3.1008,-3.0996,-3.1023,-3.0986,-3.1032,-3.0981,-3.1034,-3.1029,-3.1016,-3.1039,-3.1041,-3.1094,-3.111,-3.1141,-3.1266,-3.1278,0,0,0,-3.1049,-3.1068,-3.1077,-3.1089,-3.1088,-3.1088,-3.1075,-3.1074,-3.1093,-3.103,-3.1114,-3.1123,-3.1141,-3.1155,-3.1165,-3.1179,-3.1056,-3.1056,-3.1055,-3.1162,-3.1143,-3.1187,-3.1169,-3.1182,-3.1169,-3.1178,-3.1175,-3.1151,-3.1172,-3.1177,-3.1255,-3.1272,-3.128,-3.1295,-3.1194,-3.1194,-3.1194,-3.1195,-3.1254,-3.1278,-3.1249,-3.128,-3.1261,-3.1288,-3.1279,-3.1262,-3.1284,-3.1249,-3.1263,-3.1224,-3.1293,-3.1305,-3.1198,-3.1197,-3.1197,-3.1197,-3.1196,-3.1324,-3.1332,-3.1332,-3.1349,-3.1366,-3.1348,-3.1372,-3.1354,-3.1337,-3.1352,-3.1356,-3.1355,-3.1351,-3.1356,-3.1356,-3.1356,-3.1357,-3.1357,-3.1357,-3.1396,-3.1394,-3.1415,-3.142,-3.1427,-3.1434,-3.1425,-3.1432,-3.1434,-3.142,-3.1419,-3.1394,-3.1304,-3.1281,-3.1361,-3.136,-3.136,-3.1359,-3.1359,-3.1493,-3.1469,-3.1502,-3.1509,-3.1515,-3.1533,-3.1512,-3.1528,-3.1531,-3.1544,-3.1517,-3.1454,-3.144,-3.1432,-3.1412,-3.1521,-3.1521,-3.1521,-3.1521,-3.1551,-3.1543,-3.1574,-3.1587,-3.1598,-3.1583,-3.1623,-3.1618,-3.1609,-3.161,-3.1593,-3.1566,-3.1559,-3.1549,-3.1538,-3.1519,-3.1654,-3.1654,-3.1654,-3.1609,-3.1602,-3.1638,-3.1629,-3.1633,-3.1638,-3.1675,-3.1693,-3.1678,-3.1659,-3.1611,-3.1605,-3.1562,-3.1549,-3.1526,-3.151,-3.1475,0,0]},{"header":{"parameterUnit":"m.s-1","parameterCategory":1,"la1":30.2992,"la2":30.254,"lo1":-89.0895,"lo2":-89.0443,"dy":0.0025,"dx":0.0025,"nx":19,"ny":19,"refTime":"2026-04-15T03:00:00:Z","depth":0,"parameterNumber":3,"parameterNumberName":"V-component_of_WINDS"},"data":[0,0,0,3.5484,3.5484,3.5511,3.5511,3.5526,3.5525,0,0,0,0,0,0,0,0,0,0,0,3.5466,3.5466,3.5484,3.5484,3.551,3.5511,3.5526,3.5525,0,0,0,0,0,0,0,0,0,0,0,3.5466,3.5466,3.5465,3.5484,3.551,3.5511,3.5526,3.5512,0,0,0,0,0,0,0,0,0,0,3.549,3.5463,3.5466,3.5465,3.5484,3.551,3.5511,3.5512,3.5513,3.5506,0,3.5498,0,3.5512,3.5525,3.5525,0,0,0,3.5491,3.5462,3.5479,3.5465,3.5485,3.551,3.5501,3.5513,3.5514,3.5507,3.5498,3.5499,3.5512,3.5525,3.5525,3.5466,3.5465,0,0,3.549,3.5464,3.5478,3.5479,3.5475,3.55,3.5501,3.5514,3.5501,3.5499,3.55,3.5513,3.5525,3.5525,3.5466,3.5466,0,0,0,3.5481,3.5463,3.548,3.5478,3.5484,3.55,3.5502,3.5501,3.5509,3.55,3.5513,3.5525,3.5525,3.5467,3.5466,3.5412,0,0,0,3.5481,3.5458,3.5479,3.5463,3.5484,3.5493,3.5489,3.5508,3.551,3.5513,3.5525,3.5525,3.5468,3.5467,3.5415,3.5389,0,0,0,3.5468,3.5456,3.5457,3.5462,3.5473,3.5494,3.5502,3.5509,3.5517,3.5525,3.5525,3.5468,3.5467,3.5417,3.5394,3.5367,0,0,0,3.5446,3.5406,3.5456,3.5416,3.5472,3.546,3.5503,3.5494,3.5495,3.5525,3.5468,3.5466,3.5418,3.5397,3.5369,3.5339,3.5324,0,0,3.5381,3.5397,3.5377,3.5422,3.5395,3.5458,3.5423,3.5447,3.547,3.5466,3.5465,3.5414,3.5394,3.5367,3.5251,3.5239,0,0,0,3.5347,3.5332,3.533,3.5331,3.535,3.5364,3.5397,3.5406,3.5404,3.5463,3.5398,3.5387,3.5372,3.5359,3.5348,3.5338,3.5459,3.5459,3.5459,3.5217,3.5252,3.522,3.5258,3.5258,3.5294,3.5297,3.5316,3.5348,3.5332,3.5331,3.5256,3.5239,3.5232,3.522,3.5318,3.5318,3.5318,3.5317,3.5126,3.511,3.5158,3.5144,3.5181,3.5169,3.5202,3.5227,3.5221,3.5259,3.5248,3.5287,3.5218,3.5209,3.5314,3.5314,3.5315,3.5315,3.5315,3.5044,3.5043,3.5057,3.5063,3.5064,3.5104,3.5097,3.5131,3.5161,3.5151,3.5153,3.5154,3.5159,3.515,3.515,3.5149,3.5149,3.5149,3.5149,3.4953,3.4971,3.4962,3.4981,3.4988,3.5,3.5037,3.5044,3.5059,3.5084,3.5084,3.5118,3.5205,3.5226,3.5145,3.5146,3.5146,3.5146,3.5147,3.4846,3.4877,3.4863,3.4869,3.4896,3.4895,3.4939,3.495,3.496,3.4956,3.4994,3.5053,3.5071,3.5079,3.5097,3.4987,3.4987,3.4987,3.4987,3.4777,3.4791,3.4785,3.4794,3.4806,3.4845,3.4828,3.4858,3.4892,3.4901,3.4922,3.4948,3.4955,3.4969,3.498,3.4997,3.4864,3.4864,3.4864,3.4713,3.473,3.4709,3.4746,3.477,3.479,3.4775,3.4783,3.4828,3.4859,3.4908,3.4914,3.4957,3.4969,3.4999,3.5015,3.5046,0,0]}]]